Location: Melbourne
(37.8666°S, 145.1333°E)
Time: 16:59:10
(UTC+11:00)

Iridium 21 - Visible Passes

Search period start: 25 February 2018 00:00
Search period end: 07 March 2018 00:00
Orbit: 776 x 779 km, 86.4° (Epoch: 24 February)

Date Brightness Start Highest point End Pass type
(mag) Time Alt. Az. Time Alt. Az. Time Alt. Az.
25 Feb 6.9 21:30:03 10° SSE 21:33:58 21° ESE 21:33:58 21° ESE visible
25 Feb 6.7 23:09:57 10° SSW 23:14:27 40° WSW 23:14:27 40° WSW visible
26 Feb 7.5 20:58:41 10° ESE 21:00:07 11° ESE 21:00:42 11° E visible
26 Feb 5.6 22:36:09 10° S 22:41:10 74° SW 22:41:10 74° SW visible
27 Feb 5.6 22:02:42 10° S 22:07:55 57° E 22:07:55 57° E visible
27 Feb 8.0 23:45:08 10° SW 23:48:03 15° WSW 23:48:24 15° W visible
28 Feb 6.3 21:29:36 10° SSE 21:34:15 30° E 21:34:42 30° E visible
28 Feb 7.2 23:10:23 10° SSW 23:14:50 28° W 23:15:11 28° W visible
01 Mar 7.1 20:57:08 10° SE 21:00:27 17° ESE 21:01:29 16° E visible
01 Mar 6.1 22:36:21 10° SSW 22:41:29 52° W 22:41:59 50° WNW visible
02 Mar 5.4 22:02:42 10° S 22:08:01 83° E 22:08:48 65° NNE visible
03 Mar 5.9 21:29:22 10° SSE 21:34:26 44° E 21:35:39 38° ENE visible
03 Mar 7.7 23:11:04 10° SW 23:14:45 19° W 23:16:09 17° W visible
04 Mar 6.7 20:56:29 10° SSE 21:00:43 24° E 21:02:32 20° ENE visible
04 Mar 6.9 22:36:42 10° SSW 22:41:28 35° W 22:43:02 29° WNW visible
05 Mar 7.3 20:24:33 10° SE 20:26:52 13° ESE 20:29:09 10° E visible
05 Mar 5.8 22:02:49 10° S 22:08:05 68° W 22:09:58 39° NNW visible
06 Mar 5.5 21:29:18 10° S 21:34:34 65° E 21:36:56 32° NNE visible
06 Mar 8.3 23:12:15 10° SW 23:14:37 13° WSW 23:16:58 10° WNW visible
